Simultaneous Nadir Overpasses (SNOs) Predictions

Prediction of SNOs between AQUA and METOP-B Satellite Orbit:

Table of predicted SNOs for the next 14.0 days since TLE Epoch: 6/12/2020
Index Date (AQUA) Time (AQUA) Lat,Lon (AQUA) SZA (AQUA ) Date (METOP-B) Time (METOP-B) Lat,Lon (METOP-B) SZA (METOP-B ) Distance(km) Time Diff (sec)
1 06/13/2020 22:37:22 -73.80, 14.99 129.47 06/13/2020 22:36:55 -73.80, 14.92 129.47 2.14 27
2 06/13/2020 23:26:50 73.85,-177.48 50.58 06/13/2020 23:27:33 73.86,-177.58 50.60 3.46 43
3 06/16/2020 18:11:37 -73.79, 81.44 129.58 06/16/2020 18:11:16 -73.82, 81.39 129.55 3.35 21
4 06/16/2020 19:01:06 73.90,-111.16 50.54 06/16/2020 19:01:54 73.88,-111.12 50.51 2.41 48
5 06/19/2020 12:56:15 73.23, -18.58 49.78 06/19/2020 12:55:08 73.17, -21.00 49.83 78.15 67
6 06/19/2020 13:45:53 -73.85, 147.76 129.57 06/19/2020 13:45:37 -73.84, 147.85 129.57 2.93 16
7 06/19/2020 14:35:21 73.91, -44.74 50.50 06/19/2020 14:36:15 73.90, -44.67 50.49 2.32 54
8 06/22/2020 08:30:33 73.45, 47.40 50.02 06/22/2020 08:29:23 73.44, 46.01 50.08 44.20 70
9 06/22/2020 09:20:06 -73.80,-145.71 129.61 06/22/2020 09:19:58 -73.81,-145.81 129.59 3.33 8
10 06/22/2020 10:09:35 73.92, 21.67 50.52 06/22/2020 10:10:35 73.92, 21.78 50.51 3.43 60
11 06/25/2020 04:04:53 73.73, 113.25 50.38 06/25/2020 04:03:40 73.66, 112.91 50.33 13.19 73
12 06/25/2020 04:54:21 -73.82, -79.30 129.53 06/25/2020 04:54:19 -73.83, -79.36 129.52 2.14 2




NCC Satellite Simultaneous Nadir Overpasses (SNOs) Prediction Service
